SCP
0 0 0 -0 0 -0 0 -0 -0 -0 0 0 0 0 0 0 0 0 0 1 1 0 0 1 1 2 1 1 2 0 -0 -0 0 0 -0 0 -0 -0 -0 -0 -0 -0 0 1
0 0 0 -0 -0 -0 -0 -0 -0 -0 0 0 0 0 0 0 0 0 0 1 1 1 1 1 1 0 1 1 2 1 0 0 0 0 0 0 0 0 0 0 1 1 1 1
0 0 0 0 0 0 0 0 0 0 0 0 0 0 0 0 0 0 0 0 1 1 1 1 1 0 0 0 -0 4 1 0 0 1 0 0 1 1 1 1 1 1 1 2
0 0 0 0 0 0 0 0 0 0 0 0 0 0 0 1 1 1 1 1 1 1 1 0 0 1 -0 -0 -0 0 2 2 2 3 1 1 1 1 1 2 2 2 2 2
0 0 0 0 0 0 0 0 0 0 0 0 0 0 0 0 0 0 1 1 1 1 1 1 0 0 1 1 1 1 1 2 2 3 3 2 2 2 2 1 2 3 5 6
0 0 0 0 0 0 0 0 0 0 0 0 0 0 1 1 1 1 1 1 1 1 1 1 1 1 0 0 0 -0 0 0 0 1 2 3 4 3 3 4 5 5 4 5
0 0 0 0 0 0 0 0 0 0 0 0 0 0 1 1 1 1 1 1 1 1 1 1 1 0 0 -0 0 0 0 1 1 1 1 2 3 4 3 3 4 3 3 4
0 0 0 0 0 0 0 0 0 0 0 0 0 0 0 1 1 1 1 2 1 2 2 1 1 1 1 1 1 1 0 0 0 0 0 1 1 1 2 3 3 2 2 2
0 0 0 0 0 0 0 0 0 0 0 0 0 0 0 0 0 0 1 1 1 1 1 1 1 1 0 1 1 1 1 0 0 0 -0 -0 -0 1 1 1 2 2 2 1
0 0 0 0 0 0 0 0 0 0 0 0 0 0 0 0 0 0 0 0 0 0 0 0 0 0 0 0 0 0 0 1 0 0 -0 -0 -1 -0 1 2 2 2 2 1
0 0 0 0 0 0 0 0 0 0 0 0 0 0 0 0 0 0 0 0 0 0 0 0 0 0 0 0 0 0 0 0 0 0 1 0 -0 -0 0 1 1 2 1 1
0 0 0 0 0 0 0 0 0 0 0 0 0 0 0 0 0 0 0 0 0 0 0 0 0 0 0 0 0 0 0 0 0 0 0 1 1 0 0 0 0 0 0 0
0 0 0 0 0 0 0 0 0 0 0 0 0 0 0 0 0 0 0 0 0 0 0 0 0 0 0 0 0 0 0 0 0 0 0 0 0 1 1 0 0 0 0 0
0 0 0 0 0 0 0 0 0 0 0 0 0 0 0 0 0 0 0 0 0 0 0 0 0 0 0 0 0 0 0 0 0 0 0 0 0 0 1 1 1 1 0 0
0 0 0 0 0 0 0 0 0 0 0 0 0 0 0 0 0 0 0 0 0 0 0 0 0 0 0 0 0 0 0 0 0 0 0 0 0 1 1 1 1 1 0 0
0 0 0 0 0 0 0 0 0 0 0 0 0 0 0 0 0 0 0 0 0 0 0 0 0 0 0 0 0 0 0 0 0 0 0 0 0 1 1 0 0 0 1 0
0 0 0 0 0 0 0 0 0 0 0 0 0 0 0 0 0 0 0 0 0 0 0 0 0 0 0 0 0 0 0 0 0 0 0 0 0 0 0 0 0 0 0 0
0 0 0 0 0 0 0 0 0 0 0 0 0 0 0 0 0 1 1 1 0 0 0 0 0 0 0 0 0 0 0 0 0 0 0 0 0 0 0 0 0 0 0 0
0 0 0 0 0 0 0 0 0 0 0 0 0 0 0 0 0 0 1 1 0 0 0 0 0 0 0 0 0 0 0 0 0 0 0 0 0 0 0 0 0 0 0 0
0 0 0 0 0 0 0 0 0 0 0 0 0 0 0 0 0 0 0 0 1 0 0 0 0 0 0 -0 -0 0 0 0 0 0 0 0 0 0 0 0 0 0 0 0
0 0 0 0 0 0 0 0 0 0 0 0 0 0 0 0 -0 0 0 0 0 0 0 0 -0 -0 -0 0 0 0 0 0 0 0 0 0 0 0 0 0 0 0 0 1
-0 0 0 0 0 0 0 0 0 0 0 0 0 0 0 0 -0 0 0 -0 -0 0 -0 -0 -0 0 0 0 0 0 0 0 0 0 0 0 0 0 0 0 0 0 1 1
0 -0 0 0 0 0 0 0 0 0 0 0 0 0 0 0 0 0 0 -0 0 -0 0 0 -0 0 0 0 0 0 0 0 0 0 0 0 0 0 0 0 0 0 1 1
0 0 0 0 0 0 0 0 0 0 0 0 0 0 0 0 0 0 0 0 0 0 -0 -0 0 0 -0 0 0 0 0 0 0 0 0 0 0 0 0 0 0 0 0 0
0 0 0 0 0 0 0 0 0 0 0 0 0 0 0 0 0 0 0 0 -0 0 0 0 0 0 0 -0 -0 0 0 0 -0 -0 0 0 0 0 0 0 0 0 0 0
-0 -0 0 0 0 0 0 0 0 0 -0 -0 0 0 0 0 0 0 0 0 0 0 0 0 0 0 0 -0 -0 -0 0 0 -0 0 -0 -0 0 0 0 0 0 0 0 0
0 0 0 0 0 -0 -0 -0 -0 -0 -0 -0 0 0 0 0 0 0 0 0 0 0 0 0 0 0 0 0 0 -0 -0 -0 -0 -0 -0 -0 -0 0 0 0 0 0 0 -0
Wind_Speed_500mb
24 22 25 29 32 30 29 29 30 30 15 19 14 9 6 6 11 15 16 20 22 16 17 21 23 23 22 10 10 20 32 39 42 41 41 43 46 49 55 61 64 62 62 63
30 33 35 36 38 38 37 36 37 32 37 31 7 5 13 9 6 11 15 15 20 19 28 31 24 21 21 26 41 33 30 31 35 40 47 50 52 53 57 59 62 70 72 68
31 18 21 25 37 36 34 36 30 30 28 18 14 14 20 19 11 11 12 11 13 16 21 23 23 18 21 27 49 39 33 19 20 20 33 43 48 52 56 58 59 70 71 66
21 10 25 5 7 4 14 15 20 28 20 12 13 7 15 16 11 12 17 15 14 19 25 25 24 25 27 27 38 33 6 4 7 12 25 35 41 44 45 48 54 57 60 68
14 21 27 24 10 10 12 18 17 17 11 13 10 11 20 14 10 11 17 15 13 13 13 17 19 22 21 14 15 22 23 20 20 19 19 25 27 38 43 44 51 56 62 66
10 15 16 13 9 7 12 19 19 16 13 10 10 17 13 11 8 10 15 15 15 12 8 6 6 9 14 15 10 7 13 18 23 30 32 29 25 26 30 43 48 50 58 61
19 17 14 13 9 5 20 9 26 21 17 16 17 21 8 8 3 7 14 18 18 16 13 12 8 5 5 4 2 6 7 9 14 26 35 41 44 36 31 36 43 46 46 50
15 17 29 13 5 13 19 23 20 21 18 19 18 20 22 19 17 14 15 17 18 19 19 16 12 9 8 5 10 15 18 19 22 28 30 35 45 50 40 37 49 43 49 52
8 6 2 16 24 19 18 18 23 29 28 26 29 27 25 25 24 18 15 18 18 20 21 20 17 16 13 15 19 22 25 24 22 23 21 30 39 48 48 40 35 36 39 44
11 17 11 19 33 35 29 32 40 43 44 40 42 40 38 34 29 27 23 20 20 21 21 22 22 24 26 25 22 24 27 30 29 28 29 33 35 40 44 44 39 38 40 35
25 34 30 26 15 27 34 38 41 36 35 43 48 52 50 48 43 38 33 28 26 28 26 23 25 23 19 21 21 24 28 26 28 34 35 34 32 32 38 44 42 39 31 32
20 27 27 36 40 38 37 39 38 38 44 48 51 55 52 51 48 41 33 31 32 30 32 26 26 27 22 22 26 29 28 32 37 39 42 40 37 37 42 42 46 47 57 59
32 36 40 43 40 33 25 30 38 42 45 49 50 49 51 60 54 45 38 33 33 30 29 27 28 25 23 26 28 31 31 33 40 46 52 53 51 44 44 39 43 47 47 52
32 26 27 19 21 32 33 32 33 37 41 45 48 49 48 47 50 50 45 42 33 31 29 29 30 27 26 27 31 33 36 39 42 47 47 53 55 50 44 40 44 50 46 44
10 14 23 24 19 20 26 34 41 46 48 50 50 47 45 50 52 52 46 39 36 33 28 25 25 21 24 30 36 40 37 41 44 47 47 46 48 45 44 41 44 48 53 45
13 8 9 18 27 34 40 46 50 52 53 57 60 62 63 58 55 51 47 42 41 38 29 26 23 22 30 36 44 38 40 44 47 43 43 45 45 46 46 42 45 48 53 46
8 15 24 33 40 44 46 45 44 46 47 51 57 61 64 68 64 55 45 43 40 41 38 31 26 26 31 38 47 45 44 43 43 46 42 47 51 49 46 44 42 42 44 52
12 20 30 38 47 47 45 44 46 47 49 53 68 61 63 64 63 60 45 41 38 34 33 26 21 22 32 40 48 49 44 47 47 46 46 47 52 53 52 51 45 44 40 48
21 31 39 44 43 42 46 49 54 60 63 54 60 60 60 62 56 57 47 43 36 31 25 19 21 38 40 51 57 51 45 48 50 51 50 52 52 53 55 55 50 48 41 41
30 35 42 48 43 43 49 56 58 57 54 63 59 58 52 51 49 49 55 36 27 30 23 20 33 51 52 53 56 46 44 53 58 53 52 53 54 53 52 52 50 49 51 50
34 40 47 48 44 45 50 51 50 51 57 52 43 44 41 35 28 29 30 36 50 28 27 38 48 48 53 54 54 52 54 50 52 60 64 60 53 56 56 52 49 47 49 52
38 44 47 43 45 53 55 58 52 42 55 34 31 30 24 18 19 21 21 24 24 34 34 36 39 43 54 60 58 61 62 62 61 63 64 61 59 51 51 50 47 44 49 49
39 39 38 42 49 55 59 52 34 35 45 25 24 22 14 10 9 6 8 11 12 19 25 26 32 30 49 59 68 73 80 80 75 69 63 61 60 43 41 42 40 43 35 29
35 32 37 41 41 44 43 37 30 26 19 16 15 16 6 4 7 7 12 15 17 21 22 21 19 52 82 82 73 46 52 55 58 57 50 50 48 41 35 33 34 33 29 25
27 30 31 37 42 49 40 32 27 15 9 12 12 13 9 4 5 5 6 6 2 5 12 20 34 44 80 82 51 22 6 12 20 22 21 19 15 21 24 25 28 26 23 11
23 23 27 32 37 41 33 24 17 15 6 8 19 15 12 10 8 10 11 13 12 22 21 19 50 54 84 92 78 50 44 36 27 25 24 19 18 19 21 19 17 21 28 17
16 15 20 24 29 33 38 39 38 40 28 21 19 18 24 26 25 21 16 21 24 22 19 15 20 38 74 85 93 87 82 71 64 59 56 54 49 45 42 38 35 40 37 31
Wind_Direction_500mb
277 283 277 278 282 280 273 271 280 283 304 302 342 344 98 72 50 53 47 54 73 69 99 110 114 112 93 90 314 246 229 225 226 226 230 233 230 230 233 232 238 243 245 244
273 275 274 273 271 266 263 263 263 264 272 281 324 220 188 166 101 82 57 61 64 92 98 95 106 69 202 235 337 278 246 231 234 246 251 250 252 257 252 245 242 243 241 244
276 285 289 265 253 253 258 257 254 255 266 326 262 229 206 186 168 134 123 109 102 101 95 93 97 91 71 103 211 289 262 282 242 241 253 253 254 252 253 254 253 254 245 239
268 271 250 319 69 307 296 274 255 248 266 277 269 230 204 202 196 179 166 155 138 117 106 100 101 105 123 157 192 209 119 251 310 329 290 273 273 262 253 244 243 245 243 245
249 242 265 277 195 247 239 298 214 239 234 251 230 256 232 230 230 210 191 172 160 150 144 122 120 122 115 109 70 41 21 13 17 17 340 309 288 273 264 250 244 245 252 251
206 269 277 51 58 328 305 255 20 316 279 260 253 252 104 126 153 170 180 189 190 195 196 174 139 135 141 144 131 90 60 29 17 14 8 357 328 296 271 261 261 253 251 257
233 259 280 62 340 296 239 11 351 354 338 302 255 287 347 331 356 239 210 207 210 214 221 221 210 200 201 173 137 31 13 355 346 345 343 341 342 334 283 265 261 268 266 257
246 264 253 42 221 298 347 319 346 350 340 318 302 297 303 305 300 283 253 234 227 223 221 225 220 228 243 262 311 325 326 326 327 333 333 332 327 325 315 272 264 268 270 248
257 27 8 301 300 315 310 307 322 320 311 306 301 295 297 301 305 302 277 254 244 236 233 226 228 253 243 267 294 302 306 305 299 300 299 318 328 324 312 297 270 264 264 259
288 258 298 291 300 299 291 291 300 294 291 290 289 289 288 287 287 288 287 280 265 258 251 246 252 263 276 286 293 297 301 301 298 294 294 308 315 315 304 298 280 265 263 253
265 268 278 280 269 309 306 300 299 299 286 286 283 282 284 284 283 281 278 272 270 271 269 262 268 275 278 284 294 303 307 310 300 294 289 288 289 291 296 297 285 268 249 253
268 309 306 295 295 297 299 297 296 295 297 287 279 278 278 280 277 278 279 276 265 263 261 256 259 267 277 292 304 310 312 305 295 291 285 281 281 288 290 293 286 275 268 255
286 292 292 288 287 292 293 296 296 293 291 292 290 285 281 272 263 266 278 281 265 254 247 238 248 255 266 283 299 310 310 307 299 289 279 274 274 278 279 284 287 273 266 265
291 282 279 275 289 293 296 299 302 301 296 292 288 286 282 276 267 263 266 278 260 244 238 237 242 251 268 284 293 298 302 306 304 293 285 268 266 268 273 278 285 288 275 264
242 264 272 286 297 303 308 307 304 300 299 297 296 294 290 282 275 268 265 264 252 242 235 230 245 257 276 295 303 305 300 294 292 289 285 272 261 259 266 272 281 287 284 272
273 261 271 301 305 306 304 301 300 299 299 297 294 289 286 285 282 274 265 252 236 233 231 227 247 272 298 307 307 303 296 293 293 281 277 270 255 256 263 270 278 288 282 275
289 298 312 310 310 306 301 301 301 300 301 302 301 298 291 282 277 274 262 242 236 228 228 240 261 289 305 308 307 306 299 295 291 284 272 260 258 257 263 271 274 280 284 272
291 297 302 302 300 300 301 299 297 296 297 306 295 291 286 280 276 271 260 239 232 222 231 244 268 300 309 305 309 311 299 291 287 281 275 266 257 259 261 267 268 275 280 273
290 299 302 302 298 292 291 296 299 299 301 297 288 286 282 280 275 268 266 241 223 231 237 246 262 307 307 302 304 302 289 288 286 279 274 272 267 264 265 267 268 272 272 266
299 302 301 305 298 291 297 301 299 300 303 305 303 307 296 295 284 265 260 259 237 243 252 259 285 299 300 297 299 288 278 276 281 275 271 270 266 266 264 267 269 267 274 270
306 307 308 308 301 301 302 301 311 303 314 315 308 313 316 302 269 281 255 251 251 253 268 275 290 287 293 293 289 278 268 271 284 280 267 261 261 259 259 264 267 269 272 267
314 314 311 309 307 308 305 296 306 305 320 315 313 327 310 307 288 269 248 246 249 249 254 273 286 287 293 296 288 278 271 269 272 274 267 259 260 256 257 260 265 268 266 262
315 315 314 315 318 319 329 319 303 310 319 319 323 324 303 287 301 287 277 281 257 263 269 281 296 315 315 302 295 282 272 270 264 261 259 255 253 252 253 258 263 277 251 249
317 319 318 324 325 343 349 351 322 313 335 327 342 5 53 47 3 332 317 302 277 280 290 292 283 345 353 338 334 298 272 258 247 248 246 245 249 250 249 248 259 236 265 286
317 322 327 337 338 342 334 338 359 22 360 4 25 44 63 32 50 3 350 354 355 343 342 333 353 339 350 351 1 346 319 209 202 200 211 220 217 227 228 243 239 249 268 258
321 335 342 352 356 356 357 2 13 30 117 58 58 63 61 52 60 89 95 98 19 352 350 28 40 33 22 27 51 65 77 91 107 127 144 159 162 161 157 156 167 166 151 121
336 343 16 26 25 27 38 53 52 61 83 118 82 53 72 83 84 73 49 20 6 6 17 49 32 29 50 44 53 69 79 86 91 92 94 97 99 101 100 100 97 102 105 106
Wind_Speed_850mb
24 22 25 29 32 30 29 29 30 30 15 19 14 9 6 6 11 15 16 20 22 16 17 21 23 23 22 10 10 20 32 39 42 41 41 43 46 49 55 61 64 62 62 63
30 33 35 36 38 38 37 36 37 32 37 31 7 5 13 9 6 11 15 15 20 19 28 31 24 21 21 26 41 33 30 31 35 40 47 50 52 53 57 59 62 70 72 68
31 18 21 25 37 36 34 36 30 30 28 18 14 14 20 19 11 11 12 11 13 16 21 23 23 18 21 27 49 39 33 19 20 20 33 43 48 52 56 58 59 70 71 66
21 10 25 5 7 4 14 15 20 28 20 12 13 7 15 16 11 12 17 15 14 19 25 25 24 25 27 27 38 33 6 4 7 12 25 35 41 44 45 48 54 57 60 68
14 21 27 24 10 10 12 18 17 17 11 13 10 11 20 14 10 11 17 15 13 13 13 17 19 22 21 14 15 22 23 20 20 19 19 25 27 38 43 44 51 56 62 66
10 15 16 13 9 7 12 19 19 16 13 10 10 17 13 11 8 10 15 15 15 12 8 6 6 9 14 15 10 7 13 18 23 30 32 29 25 26 30 43 48 50 58 61
19 17 14 13 9 5 20 9 26 21 17 16 17 21 8 8 3 7 14 18 18 16 13 12 8 5 5 4 2 6 7 9 14 26 35 41 44 36 31 36 43 46 46 50
15 17 29 13 5 13 19 23 20 21 18 19 18 20 22 19 17 14 15 17 18 19 19 16 12 9 8 5 10 15 18 19 22 28 30 35 45 50 40 37 49 43 49 52
8 6 2 16 24 19 18 18 23 29 28 26 29 27 25 25 24 18 15 18 18 20 21 20 17 16 13 15 19 22 25 24 22 23 21 30 39 48 48 40 35 36 39 44
11 17 11 19 33 35 29 32 40 43 44 40 42 40 38 34 29 27 23 20 20 21 21 22 22 24 26 25 22 24 27 30 29 28 29 33 35 40 44 44 39 38 40 35
25 34 30 26 15 27 34 38 41 36 35 43 48 52 50 48 43 38 33 28 26 28 26 23 25 23 19 21 21 24 28 26 28 34 35 34 32 32 38 44 42 39 31 32
20 27 27 36 40 38 37 39 38 38 44 48 51 55 52 51 48 41 33 31 32 30 32 26 26 27 22 22 26 29 28 32 37 39 42 40 37 37 42 42 46 47 57 59
32 36 40 43 40 33 25 30 38 42 45 49 50 49 51 60 54 45 38 33 33 30 29 27 28 25 23 26 28 31 31 33 40 46 52 53 51 44 44 39 43 47 47 52
32 26 27 19 21 32 33 32 33 37 41 45 48 49 48 47 50 50 45 42 33 31 29 29 30 27 26 27 31 33 36 39 42 47 47 53 55 50 44 40 44 50 46 44
10 14 23 24 19 20 26 34 41 46 48 50 50 47 45 50 52 52 46 39 36 33 28 25 25 21 24 30 36 40 37 41 44 47 47 46 48 45 44 41 44 48 53 45
13 8 9 18 27 34 40 46 50 52 53 57 60 62 63 58 55 51 47 42 41 38 29 26 23 22 30 36 44 38 40 44 47 43 43 45 45 46 46 42 45 48 53 46
8 15 24 33 40 44 46 45 44 46 47 51 57 61 64 68 64 55 45 43 40 41 38 31 26 26 31 38 47 45 44 43 43 46 42 47 51 49 46 44 42 42 44 52
12 20 30 38 47 47 45 44 46 47 49 53 68 61 63 64 63 60 45 41 38 34 33 26 21 22 32 40 48 49 44 47 47 46 46 47 52 53 52 51 45 44 40 48
21 31 39 44 43 42 46 49 54 60 63 54 60 60 60 62 56 57 47 43 36 31 25 19 21 38 40 51 57 51 45 48 50 51 50 52 52 53 55 55 50 48 41 41
30 35 42 48 43 43 49 56 58 57 54 63 59 58 52 51 49 49 55 36 27 30 23 20 33 51 52 53 56 46 44 53 58 53 52 53 54 53 52 52 50 49 51 50
34 40 47 48 44 45 50 51 50 51 57 52 43 44 41 35 28 29 30 36 50 28 27 38 48 48 53 54 54 52 54 50 52 60 64 60 53 56 56 52 49 47 49 52
38 44 47 43 45 53 55 58 52 42 55 34 31 30 24 18 19 21 21 24 24 34 34 36 39 43 54 60 58 61 62 62 61 63 64 61 59 51 51 50 47 44 49 49
39 39 38 42 49 55 59 52 34 35 45 25 24 22 14 10 9 6 8 11 12 19 25 26 32 30 49 59 68 73 80 80 75 69 63 61 60 43 41 42 40 43 35 29
35 32 37 41 41 44 43 37 30 26 19 16 15 16 6 4 7 7 12 15 17 21 22 21 19 52 82 82 73 46 52 55 58 57 50 50 48 41 35 33 34 33 29 25
27 30 31 37 42 49 40 32 27 15 9 12 12 13 9 4 5 5 6 6 2 5 12 20 34 44 80 82 51 22 6 12 20 22 21 19 15 21 24 25 28 26 23 11
23 23 27 32 37 41 33 24 17 15 6 8 19 15 12 10 8 10 11 13 12 22 21 19 50 54 84 92 78 50 44 36 27 25 24 19 18 19 21 19 17 21 28 17
16 15 20 24 29 33 38 39 38 40 28 21 19 18 24 26 25 21 16 21 24 22 19 15 20 38 74 85 93 87 82 71 64 59 56 54 49 45 42 38 35 40 37 31
Wind_Direction_850mb
277 283 277 278 282 280 273 271 280 283 304 302 342 344 98 72 50 53 47 54 73 69 99 110 114 112 93 90 314 246 229 225 226 226 230 233 230 230 233 232 238 243 245 244
273 275 274 273 271 266 263 263 263 264 272 281 324 220 188 166 101 82 57 61 64 92 98 95 106 69 202 235 337 278 246 231 234 246 251 250 252 257 252 245 242 243 241 244
276 285 289 265 253 253 258 257 254 255 266 326 262 229 206 186 168 134 123 109 102 101 95 93 97 91 71 103 211 289 262 282 242 241 253 253 254 252 253 254 253 254 245 239
268 271 250 319 69 307 296 274 255 248 266 277 269 230 204 202 196 179 166 155 138 117 106 100 101 105 123 157 192 209 119 251 310 329 290 273 273 262 253 244 243 245 243 245
249 242 265 277 195 247 239 298 214 239 234 251 230 256 232 230 230 210 191 172 160 150 144 122 120 122 115 109 70 41 21 13 17 17 340 309 288 273 264 250 244 245 252 251
206 269 277 51 58 328 305 255 20 316 279 260 253 252 104 126 153 170 180 189 190 195 196 174 139 135 141 144 131 90 60 29 17 14 8 357 328 296 271 261 261 253 251 257
233 259 280 62 340 296 239 11 351 354 338 302 255 287 347 331 356 239 210 207 210 214 221 221 210 200 201 173 137 31 13 355 346 345 343 341 342 334 283 265 261 268 266 257
246 264 253 42 221 298 347 319 346 350 340 318 302 297 303 305 300 283 253 234 227 223 221 225 220 228 243 262 311 325 326 326 327 333 333 332 327 325 315 272 264 268 270 248
257 27 8 301 300 315 310 307 322 320 311 306 301 295 297 301 305 302 277 254 244 236 233 226 228 253 243 267 294 302 306 305 299 300 299 318 328 324 312 297 270 264 264 259
288 258 298 291 300 299 291 291 300 294 291 290 289 289 288 287 287 288 287 280 265 258 251 246 252 263 276 286 293 297 301 301 298 294 294 308 315 315 304 298 280 265 263 253
265 268 278 280 269 309 306 300 299 299 286 286 283 282 284 284 283 281 278 272 270 271 269 262 268 275 278 284 294 303 307 310 300 294 289 288 289 291 296 297 285 268 249 253
268 309 306 295 295 297 299 297 296 295 297 287 279 278 278 280 277 278 279 276 265 263 261 256 259 267 277 292 304 310 312 305 295 291 285 281 281 288 290 293 286 275 268 255
286 292 292 288 287 292 293 296 296 293 291 292 290 285 281 272 263 266 278 281 265 254 247 238 248 255 266 283 299 310 310 307 299 289 279 274 274 278 279 284 287 273 266 265
291 282 279 275 289 293 296 299 302 301 296 292 288 286 282 276 267 263 266 278 260 244 238 237 242 251 268 284 293 298 302 306 304 293 285 268 266 268 273 278 285 288 275 264
242 264 272 286 297 303 308 307 304 300 299 297 296 294 290 282 275 268 265 264 252 242 235 230 245 257 276 295 303 305 300 294 292 289 285 272 261 259 266 272 281 287 284 272
273 261 271 301 305 306 304 301 300 299 299 297 294 289 286 285 282 274 265 252 236 233 231 227 247 272 298 307 307 303 296 293 293 281 277 270 255 256 263 270 278 288 282 275
289 298 312 310 310 306 301 301 301 300 301 302 301 298 291 282 277 274 262 242 236 228 228 240 261 289 305 308 307 306 299 295 291 284 272 260 258 257 263 271 274 280 284 272
291 297 302 302 300 300 301 299 297 296 297 306 295 291 286 280 276 271 260 239 232 222 231 244 268 300 309 305 309 311 299 291 287 281 275 266 257 259 261 267 268 275 280 273
290 299 302 302 298 292 291 296 299 299 301 297 288 286 282 280 275 268 266 241 223 231 237 246 262 307 307 302 304 302 289 288 286 279 274 272 267 264 265 267 268 272 272 266
299 302 301 305 298 291 297 301 299 300 303 305 303 307 296 295 284 265 260 259 237 243 252 259 285 299 300 297 299 288 278 276 281 275 271 270 266 266 264 267 269 267 274 270
306 307 308 308 301 301 302 301 311 303 314 315 308 313 316 302 269 281 255 251 251 253 268 275 290 287 293 293 289 278 268 271 284 280 267 261 261 259 259 264 267 269 272 267
314 314 311 309 307 308 305 296 306 305 320 315 313 327 310 307 288 269 248 246 249 249 254 273 286 287 293 296 288 278 271 269 272 274 267 259 260 256 257 260 265 268 266 262
315 315 314 315 318 319 329 319 303 310 319 319 323 324 303 287 301 287 277 281 257 263 269 281 296 315 315 302 295 282 272 270 264 261 259 255 253 252 253 258 263 277 251 249
317 319 318 324 325 343 349 351 322 313 335 327 342 5 53 47 3 332 317 302 277 280 290 292 283 345 353 338 334 298 272 258 247 248 246 245 249 250 249 248 259 236 265 286
317 322 327 337 338 342 334 338 359 22 360 4 25 44 63 32 50 3 350 354 355 343 342 333 353 339 350 351 1 346 319 209 202 200 211 220 217 227 228 243 239 249 268 258
321 335 342 352 356 356 357 2 13 30 117 58 58 63 61 52 60 89 95 98 19 352 350 28 40 33 22 27 51 65 77 91 107 127 144 159 162 161 157 156 167 166 151 121
336 343 16 26 25 27 38 53 52 61 83 118 82 53 72 83 84 73 49 20 6 6 17 49 32 29 50 44 53 69 79 86 91 92 94 97 99 101 100 100 97 102 105 106